Location: Peebles
(55.6412°N, 3.1714°W)
Time: 10:41:08
(UTC+01:00)

IRIDIUM 33 DEB - Pass Details

Date: 26 June 2022
Orbit: 580 x 634 km, 86.4° (Epoch: 16 August)

Event Time Altitude Azimuth Distance (km) Brightness Sun altitude
Rises 02:58:43 0° 359° (N) 2,825 ? -8.0°
Reaches altitude 10° 03:01:04 10° 8° (N) 1,916 ? -7.9°
Maximum altitude 03:04:59 37° 76° (ENE) 918 ? -7.6°
Drops below altitude 10° 03:08:51 10° 145° (SE) 1,899 ? -7.4°
Sets 03:11:10 0° 154° (SSE) 2,798 ? -7.2°
